GW0458 Weather Reports


Display with metric or nautical units.
time (UTC)temp
F
wind
direction
speed
MPH
gust
MPH
rain 1hr
in
rain 24hr
in
rain mn
in
humidity
%
barometer
mb
20260905161623 59 217 0.0 1.0 0.00 0.00 0.00 83 1026.0
20260905154619 59 193 0.0 1.0 0.00 0.00 0.00 85 1026.0
20260905151614 55 186 1.0 1.0 0.00 0.00 0.00 97 1025.9
20260905144614 51 200 0.0 1.0 0.00 0.00 0.00 99 1025.9
20260905141613 50 200 0.0 0.0 0.00 0.00 0.00 99 1025.4
20260905134612 50 200 0.0 0.0 0.00 0.00 0.00 99 1025.3
20260905131608 49 200 0.0 0.0 0.00 0.00 0.00 99 1025.4
20260905124607 49 210 0.0 0.0 0.00 0.00 0.00 99 1025.2
20260905121607 49 183 1.0 2.0 0.00 0.00 0.00 99 1025.1
20260905114601 49 194 0.0 0.0 0.00 0.00 0.00 99 1025.0
20260905111600 49 199 0.0 0.0 0.00 0.00 0.00 99 1024.9
20260905104555 50 200 0.0 0.0 0.00 0.00 0.00 99 1024.9
20260905101554 50 205 0.0 0.0 0.00 0.00 0.00 99 1024.7
20260905094551 50 194 1.0 2.0 0.00 0.00 0.00 99 1024.7
20260905091547 50 199 0.0 0.0 0.00 0.00 0.00 99 1024.8
20260905084543 51 202 0.0 0.0 0.00 0.00 0.00 99 1024.5
20260905081543 52 198 0.0 0.0 0.00 0.00 0.00 99 1024.3
20260905074543 52 199 0.0 0.0 0.00 0.00 0.00 99 1024.4
20260905071539 53 201 0.0 0.0 0.00 0.00 0.00 99 1024.3
20260905064535 54 183 0.0 0.0 0.00 0.00 0.00 99 1024.0
20260905061533 55 227 0.0 0.0 0.00 0.00 0.00 97 1023.5
20260905054531 55 200 0.0 0.0 0.00 0.00 0.00 99 1023.2
20260905051529 55 194 0.0 0.0 0.00 0.00 0.00 99 1023.4
20260905044526 56 204 0.0 0.0 0.00 0.00 0.00 97 1023.5
20260905041522 57 69 2.0 2.0 0.00 0.00 0.00 91 1023.3
20260905034521 57 204 0.0 0.0 0.00 0.00 0.00 93 1023.3
20260905031520 57 206 0.0 0.0 0.00 0.00 0.00 97 1023.2
20260905024518 59 190 1.0 1.0 0.00 0.00 0.00 89 1022.9
20260905021515 60 196 0.0 0.0 0.00 0.00 0.00 87 1022.6
20260905014510 60 200 1.0 1.0 0.00 0.00 0.00 85 1022.9
20260905011508 61 76 2.0 3.0 0.00 0.00 0.00 83 1022.6
20260905004508 61 179 1.0 2.0 0.00 0.00 0.00 84 1022.2
20260905001508 62 199 1.0 1.0 0.00 0.00 0.00 83 1021.9
20260904234506 64 12 2.0 2.0 0.00 0.00 0.00 66 1022.0
20260904231505 69 215 0.0 0.0 0.00 0.00 0.00 57 1021.5
20260904224505 71 218 1.0 1.0 0.00 0.00 0.00 60 1021.5
20260904221502 72 210 2.0 2.0 0.00 0.00 0.00 58 1021.3
20260904214501 72 164 1.0 1.0 0.00 0.00 0.00 58 1021.0
20260904211457 73 206 0.0 0.0 0.00 0.00 0.00 56 1020.9
20260904204453 71 229 1.0 2.0 0.00 0.00 0.00 61 1021.1
20260904201451 70 212 1.0 1.0 0.00 0.00 0.00 63 1021.1
20260904194450 68 220 0.0 1.0 0.00 0.00 0.00 69 1021.4
20260904191446 69 204 1.0 1.0 0.00 0.00 0.00 68 1021.3
20260904184442 67 238 2.0 3.0 0.00 0.00 0.00 71 1021.4
20260904181442 65 209 1.0 1.0 0.00 0.00 0.00 78 1021.5
20260904174438 64 203 0.0 1.0 0.00 0.00 0.00 80 1021.6
20260904171433 60 208 0.0 1.0 0.00 0.00 0.00 90 1021.6
20260904164430 58 211 0.0 0.0 0.00 0.00 0.00 94 1021.4